Regional Weather Roundup
Issued by NWS

Home | Current Version | Previous Version | Graphics & Text | Print | Product List | Glossary On
Versions: 1 2 3 4 5 6 7 8 9 10 11 12 13 14 15 16 17 18 19 20 21 22 23 24 25 26 27 28 29 30 31 32 33 34 35 36 37 38 39 40 41 42 43 44 45 46 47 48 49 50
000
ASUS43 KLOT 050700
RWRIL

ILLINOIS REGIONAL WEATHER ROUNDUP
NATIONAL WEATHER SERVICE CHICAGO/ROMEOVILLE IL
100 AM CST THU MAR 05 2015

NOTE: "FAIR" INDICATES FEW OR NO CLOUDS BELOW 12,000 FEET WITH NO
SIGNIFICANT WEATHER AND/OR OBSTRUCTIONS TO VISIBILITY.

* THESE STATIONS ARE NOT UNDER NWS QUALITY CONTROL. THEY ALSO MAY NOT
  REPORT WEATHER SUCH AS PRECIPITATION OR FOG.

ILZ001-002-007-009-015-016-024-050800-
NORTHWEST ILLINOIS

CITY           SKY/WX    TMP DP  RH WIND       PRES   REMARKS
MOLINE         CLEAR     11  -1  58 N9        30.42F WCI  -2
STERLING*      PTCLDY     7   0  72 NW6       30.39F WCI  -3
$$

ILZ003-004-008-010-011-017-018-050800-
NORTH CENTRAL ILLINOIS

CITY           SKY/WX    TMP DP  RH WIND       PRES   REMARKS
ROCKFORD       PTCLDY     5  -5  63 N7        30.40R WCI  -7
$$

ILZ005-006-012>014-019>023-050800-
NORTHEAST ILLINOIS

CITY           SKY/WX    TMP DP  RH WIND       PRES   REMARKS
CHICAGO-OHARE  PTCLDY     9  -4  55 NW12      30.36R WCI  -6
CHICAGO-MIDWAY PTCLDY    13  -1  54 NW10      30.36R WCI   0
AURORA         CLEAR      4  -5  66 NW9       30.38R WCI -10
LANSING*       CLEAR     13   0  55 NW8       30.36R WCI   1
WAUKEGAN       CLEAR      3  -7  63 NW5       30.36R WCI  -6
DUPAGE AIRPORT CLEAR      8  -4  58 NW12      30.36R WCI  -7
WHEELING       CLEAR      8  -4  58 NW8       30.38R WCI  -4
NORTHERLY ISL    N/A     15   0  51 NW10        N/A  WCI   3
$$

LMZ740>746-050800-
SOUTHERN LAKE MICHIGAN

STATION/POSITION SKY/WX   TEMP    WIND        PRES    VSBY  WAVE
                          AIR SEA DIR/SP/G                  HT/PER
                          (F)     (DEG/KT/KT) (MB)    (MI)  (FT/S)
WAUKEGAN HARBOR             9                   N/A
HARRISON CRIB              15     310/ 17/ 21   N/A
BURNHAM HARBOR             15     310/  7/ 14   N/A
CALUMET HARBOR             14     290/ 10/ 16 1026.5R
MICHIGAN CITY              15     290/ 11/ 13   N/A
$$

ILZ025>027-034>036-040-047-049-050-058-095>099-050800-
WEST-CENTRAL ILLINOIS

CITY           SKY/WX    TMP DP  RH WIND       PRES   REMARKS
QUINCY         MOCLDY    16   5  62 N3        30.38S
$$

ILZ028>032-037-038-041>044-048-051>054-059>061-050800-
CENTRAL ILLINOIS

CITY           SKY/WX    TMP DP  RH WIND       PRES   REMARKS
DECATUR        MOCLDY    15   4  61 N17       30.35F WCI  -1
PEORIA         MOCLDY    13   0  56 N8        30.39F WCI   2
SPRINGFIELD    CLEAR     15   3  59 N13       30.39F WCI   1
TAYLORVILLE    NOT AVBL
$$

ILZ033-039-045-046-055>057-062-063-050800-
EAST-CENTRAL ILLINOIS

CITY           SKY/WX    TMP DP  RH WIND       PRES   REMARKS
CHAMPAIGN      PTCLDY    14   4  64 N15       30.33F WCI  -1
MATTOON        CLOUDY    16   6  65 N16       30.32F WCI   1
$$

ILZ079-100>102-050800-
SOUTHWEST ILLINOIS

CITY           SKY/WX    TMP DP  RH WIND       PRES   REMARKS
BELLEVILLE     CLOUDY    21   6  52 N9        30.38R WCI  10
CAHOKIA*       MOCLDY    22   7  52 N9        30.40R WCI  12
$$

ILZ064>066-069>071-074>076-080>082-084>086-088>090-092>094-050800-
SOUTH-CENTRAL ILLINOIS

CITY           SKY/WX    TMP DP  RH WIND       PRES   REMARKS
CARBONDALE     CLOUDY    20   7  57 N9        30.35F WCI   9
MT. VERNON     CLOUDY    19   3  49 N7        30.35R WCI  10
$$

ILZ067-068-072-073-078-083-087-091-050800-
SOUTHEAST ILLINOIS

CITY           SKY/WX    TMP DP  RH WIND       PRES   REMARKS
LAWRENCEVILLE  CLOUDY    19   6  57 N16       30.34R WCI   4
$$

ABBREVIATIONS USED IN REMARKS
   TC - TEMPERATURE IN CELSIUS
  WCI - WIND CHILL INDEX
   HX - HEAT INDEX
  VSB - VISIBILITY
$$




USA.gov is the U.S. government's official web portal to all federal, state and local government web resources and services.